Tracking 19564 objects as of 18-Mar-2019
HD Live streaming from Space Station
objects crossing your sky now

METEOR 1-25

Track METEOR 1-25 now!
10-day predictions
METEOR 1-25 is classified as:


NORAD ID: 8845
Int'l Code: 1976-043A
Perigee: 833.7 km
Apogee: 889.3 km
Inclination: 81.3 °
Period: 102.0 minutes
Semi major axis: 7232 km
RCS: 4.2593 m2 (large)
Launch date: May 15, 1976
Source: Commonwealth of Independent States (former USSR) (CIS)
Launch site: PLESETSK MISSILE AND SPACE COMPLEX (PKMTR)
aabbcc
Your satellite tracking list
Your tracking list is empty




NASA's NSSDC Master Catalog

Two Line Element Set (TLE):
1  8845U 76043A   19076.92570140 +.00000045 +00000-0 +17788-4 0  9990
2  8845 081.2642 014.8355 0038457 249.7175 109.9862 14.11471072351303
Source of the keplerian elements: AFSPC